| time (UTC) | temp F | wind direction | speed MPH | gust MPH | rain 1hr in | rain 24hr in | rain mn in | humidity % | barometer mb |
| 20260831191547 | 50 | 325 | 0.0 | 3.0 | 0.00 | 0.00 | 0.00 | 82 | 1020.4 |
| 20260831190056 | 50 | 278 | 0.0 | 2.0 | 0.00 | 0.00 | 0.00 | 83 | 1020.5 |
| 20260831184543 | 49 | 290 | 1.0 | 3.0 | 0.00 | 0.00 | 0.00 | 85 | 1020.4 |
| 20260831183043 | 48 | 291 | 1.0 | 2.0 | 0.00 | 0.00 | 0.00 | 83 | 1020.5 |
| 20260831181552 | 49 | 269 | 3.0 | 5.0 | 0.00 | 0.00 | 0.00 | 80 | 1020.9 |
| 20260831180039 | 51 | 332 | 2.0 | 4.0 | 0.00 | 0.00 | 0.00 | 79 | 1020.7 |
| 20260831174549 | 53 | 316 | 1.0 | 6.0 | 0.00 | 0.00 | 0.00 | 76 | 1021.0 |
| 20260831173036 | 53 | 321 | 3.0 | 7.0 | 0.00 | 0.00 | 0.00 | 77 | 1021.1 |
| 20260831171534 | 53 | 25 | 6.0 | 10.0 | 0.00 | 0.00 | 0.00 | 78 | 1021.3 |
| 20260831170036 | 53 | 344 | 5.0 | 11.0 | 0.00 | 0.00 | 0.00 | 76 | 1021.6 |
| 20260831164527 | 52 | 358 | 5.0 | 9.0 | 0.00 | 0.00 | 0.00 | 76 | 1021.8 |
| 20260831163022 | 50 | 313 | 2.0 | 3.0 | 0.00 | 0.00 | 0.00 | 76 | 1022.1 |
| 20260831161519 | 50 | 331 | 4.0 | 8.0 | 0.00 | 0.00 | 0.00 | 76 | 1022.3 |
| 20260831160034 | 49 | 311 | 0.0 | 3.0 | 0.00 | 0.00 | 0.00 | 77 | 1022.6 |
| 20260831154514 | 49 | 316 | 0.0 | 2.0 | 0.00 | 0.00 | 0.00 | 77 | 1022.7 |
| 20260831153029 | 49 | 319 | 0.0 | 3.0 | 0.00 | 0.00 | 0.00 | 77 | 1022.9 |
| 20260831151508 | 49 | 333 | 1.0 | 3.0 | 0.00 | 0.00 | 0.00 | 79 | 1023.1 |
| 20260831150005 | 47 | 283 | 0.0 | 2.0 | 0.00 | 0.00 | 0.00 | 84 | 1023.2 |
| 20260831144607 | 46 | 283 | 1.0 | 1.0 | 0.00 | 0.00 | 0.00 | 89 | 1023.4 |
| 20260831143100 | 46 | 283 | 0.0 | 1.0 | 0.00 | 0.00 | 0.00 | 90 | 1023.5 |
| 20260831141555 | 45 | 283 | 0.0 | 1.0 | 0.00 | 0.00 | 0.00 | 90 | 1023.7 |
| 20260831140052 | 44 | 283 | 0.0 | 3.0 | 0.00 | 0.00 | 0.00 | 88 | 1023.8 |
| 20260831134548 | 46 | 274 | 2.0 | 3.0 | 0.00 | 0.00 | 0.00 | 87 | 1024.2 |
| 20260831133047 | 47 | 285 | 2.0 | 3.0 | 0.00 | 0.00 | 0.00 | 84 | 1024.6 |
| 20260831131547 | 51 | 272 | 1.0 | 2.0 | 0.00 | 0.00 | 0.00 | 84 | 1024.8 |
| 20260831130053 | 51 | 22 | 1.0 | 4.0 | 0.00 | 0.00 | 0.00 | 84 | 1024.9 |
| 20260831124542 | 51 | 69 | 2.0 | 5.0 | 0.00 | 0.00 | 0.00 | 85 | 1025.1 |
| 20260831123047 | 51 | 30 | 1.0 | 5.0 | 0.00 | 0.00 | 0.00 | 85 | 1025.3 |
| 20260831121542 | 51 | 341 | 1.0 | 3.0 | 0.00 | 0.00 | 0.00 | 85 | 1025.5 |
| 20260831120109 | 52 | 77 | 0.0 | 4.0 | 0.00 | 0.00 | 0.00 | 83 | 1025.5 |
| 20260831114535 | 52 | 20 | 2.0 | 5.0 | 0.00 | 0.00 | 0.00 | 83 | 1025.7 |
| 20260831113034 | 51 | 29 | 1.0 | 4.0 | 0.00 | 0.00 | 0.00 | 84 | 1025.9 |
| 20260831111539 | 51 | 37 | 2.0 | 4.0 | 0.00 | 0.00 | 0.00 | 85 | 1025.9 |
| 20260831110035 | 50 | 348 | 0.0 | 2.0 | 0.00 | 0.00 | 0.00 | 84 | 1025.9 |
| 20260831104538 | 50 | 107 | 0.0 | 1.0 | 0.00 | 0.00 | 0.00 | 84 | 1026.0 |
| 20260831103030 | 51 | 107 | 0.0 | 0.0 | 0.00 | 0.00 | 0.00 | 83 | 1026.0 |
| 20260831101534 | 51 | 107 | 0.0 | 0.0 | 0.00 | 0.00 | 0.00 | 83 | 1026.2 |
| 20260831100029 | 52 | 107 | 0.0 | 0.0 | 0.00 | 0.00 | 0.00 | 82 | 1026.3 |
| 20260831094527 | 52 | 107 | 0.0 | 1.0 | 0.00 | 0.00 | 0.00 | 82 | 1026.3 |
| 20260831093025 | 53 | 107 | 0.0 | 2.0 | 0.00 | 0.00 | 0.00 | 82 | 1026.5 |
| 20260831091528 | 53 | 108 | 1.0 | 2.0 | 0.00 | 0.00 | 0.00 | 82 | 1026.5 |
| 20260831090027 | 53 | 96 | 0.0 | 2.0 | 0.00 | 0.00 | 0.00 | 82 | 1026.5 |
| 20260831084528 | 54 | 96 | 1.0 | 3.0 | 0.00 | 0.00 | 0.00 | 80 | 1026.6 |
| 20260831083025 | 55 | 111 | 1.0 | 3.0 | 0.00 | 0.00 | 0.00 | 80 | 1026.6 |
| 20260831081533 | 56 | 94 | 1.0 | 2.0 | 0.00 | 0.00 | 0.00 | 78 | 1026.7 |
| 20260831080020 | 57 | 89 | 1.0 | 2.0 | 0.00 | 0.00 | 0.00 | 77 | 1026.8 |
| 20260831074521 | 58 | 86 | 1.0 | 2.0 | 0.00 | 0.00 | 0.00 | 74 | 1026.7 |
| 20260831073023 | 59 | 67 | 0.0 | 3.0 | 0.00 | 0.00 | 0.00 | 73 | 1026.7 |
| 20260831071519 | 61 | 89 | 0.0 | 3.0 | 0.00 | 0.00 | 0.00 | 71 | 1026.7 |
| 20260831070026 | 62 | 102 | 0.0 | 3.0 | 0.00 | 0.00 | 0.00 | 69 | 1026.8 |
| 20260831064518 | 62 | 62 | 0.0 | 3.0 | 0.00 | 0.00 | 0.00 | 68 | 1026.9 |
| 20260831063016 | 62 | 88 | 0.0 | 0.0 | 0.00 | 0.00 | 0.00 | 67 | 1027.0 |
| 20260831061515 | 62 | 101 | 0.0 | 3.0 | 0.00 | 0.00 | 0.00 | 67 | 1027.0 |
| 20260831060015 | 63 | 48 | 0.0 | 2.0 | 0.00 | 0.00 | 0.00 | 65 | 1027.2 |
| 20260831054509 | 62 | 157 | 0.0 | 2.0 | 0.00 | 0.00 | 0.00 | 67 | 1027.4 |
| 20260831053008 | 62 | 86 | 0.0 | 3.0 | 0.00 | 0.00 | 0.00 | 67 | 1027.7 |
| 20260831051506 | 61 | 63 | 0.0 | 5.0 | 0.00 | 0.00 | 0.00 | 67 | 1027.9 |
| 20260831050005 | 61 | 110 | 0.0 | 3.0 | 0.00 | 0.00 | 0.00 | 69 | 1027.9 |
| 20260831044504 | 62 | 116 | 0.0 | 2.0 | 0.00 | 0.00 | 0.00 | 65 | 1028.1 |
| 20260831043001 | 62 | 125 | 1.0 | 2.0 | 0.00 | 0.00 | 0.00 | 62 | 1028.3 |
| 20260831041559 | 62 | 87 | 1.0 | 3.0 | 0.00 | 0.00 | 0.00 | 62 | 1028.6 |
| 20260831040056 | 61 | 67 | 0.0 | 2.0 | 0.00 | 0.00 | 0.00 | 64 | 1028.9 |
| 20260831034555 | 60 | 284 | 1.0 | 3.0 | 0.00 | 0.00 | 0.00 | 66 | 1029.1 |
| 20260831033056 | 59 | 314 | 2.0 | 4.0 | 0.00 | 0.00 | 0.00 | 69 | 1029.4 |
| 20260831031548 | 58 | 284 | 1.0 | 4.0 | 0.00 | 0.00 | 0.00 | 71 | 1029.7 |
| 20260831030044 | 57 | 257 | 2.0 | 7.0 | 0.00 | 0.00 | 0.00 | 71 | 1029.9 |
| 20260831024538 | 56 | 280 | 2.0 | 6.0 | 0.00 | 0.00 | 0.00 | 75 | 1030.1 |
| 20260831023037 | 55 | 284 | 0.0 | 5.0 | 0.00 | 0.00 | 0.00 | 76 | 1030.4 |
| 20260831021546 | 54 | 265 | 2.0 | 4.0 | 0.00 | 0.00 | 0.00 | 76 | 1030.7 |
| 20260831020023 | 53 | 277 | 3.0 | 6.0 | 0.00 | 0.00 | 0.00 | 77 | 1031.0 |
| 20260831014522 | 53 | 202 | 3.0 | 8.0 | 0.00 | 0.00 | 0.00 | 78 | 1031.2 |
| 20260831013018 | 52 | 272 | 2.0 | 6.0 | 0.00 | 0.00 | 0.00 | 80 | 1031.5 |
| 20260831011515 | 51 | 259 | 3.0 | 8.0 | 0.00 | 0.00 | 0.00 | 80 | 1031.9 |
| 20260831010031 | 51 | 284 | 3.0 | 7.0 | 0.00 | 0.00 | 0.00 | 81 | 1031.9 |
| 20260831004510 | 48 | 238 | 3.0 | 9.0 | 0.00 | 0.00 | 0.00 | 83 | 1032.0 |
| 20260831003007 | 48 | 281 | 4.0 | 8.0 | 0.00 | 0.00 | 0.00 | 83 | 1032.1 |
| 20260831001513 | 48 | 264 | 4.0 | 7.0 | 0.00 | 0.00 | 0.00 | 84 | 1032.3 |
| 20260831000005 | 48 | 256 | 2.0 | 7.0 | 0.00 | 0.00 | 0.00 | 85 | 1032.2 |
| 20260830234600 | 47 | 263 | 0.0 | 7.0 | 0.00 | 0.00 | 0.00 | 85 | 1032.1 |
| 20260830233056 | 47 | 263 | 1.0 | 6.0 | 0.00 | 0.00 | 0.00 | 85 | 1032.3 |
| 20260830231555 | 47 | 255 | 2.0 | 5.0 | 0.00 | 0.00 | 0.00 | 86 | 1032.4 |
| 20260830230055 | 47 | 272 | 1.0 | 4.0 | 0.00 | 0.00 | 0.00 | 86 | 1032.4 |
| 20260830224602 | 46 | 271 | 2.0 | 7.0 | 0.00 | 0.00 | 0.00 | 87 | 1032.4 |
| 20260830223053 | 46 | 266 | 1.0 | 7.0 | 0.00 | 0.00 | 0.00 | 87 | 1032.3 |
| 20260830221553 | 46 | 276 | 3.0 | 5.0 | 0.00 | 0.00 | 0.00 | 87 | 1032.4 |
| 20260830220101 | 46 | 248 | 1.0 | 6.0 | 0.00 | 0.00 | 0.00 | 87 | 1032.4 |
| 20260830214600 | 46 | 278 | 1.0 | 5.0 | 0.00 | 0.00 | 0.00 | 87 | 1032.2 |
| 20260830213050 | 46 | 248 | 3.0 | 7.0 | 0.00 | 0.00 | 0.00 | 88 | 1032.3 |
| 20260830211549 | 46 | 277 | 2.0 | 7.0 | 0.00 | 0.00 | 0.00 | 88 | 1032.2 |
| 20260830210049 | 46 | 272 | 1.0 | 5.0 | 0.00 | 0.00 | 0.00 | 87 | 1032.2 |
| 20260830204547 | 46 | 266 | 0.0 | 4.0 | 0.00 | 0.00 | 0.00 | 87 | 1032.1 |
| 20260830203051 | 46 | 258 | 2.0 | 5.0 | 0.00 | 0.00 | 0.00 | 87 | 1032.0 |
| 20260830201544 | 46 | 266 | 1.0 | 5.0 | 0.00 | 0.00 | 0.00 | 87 | 1032.0 |
| 20260830200044 | 47 | 270 | 0.0 | 4.0 | 0.00 | 0.00 | 0.00 | 87 | 1031.9 |
| 20260830194545 | 47 | 277 | 2.0 | 6.0 | 0.00 | 0.00 | 0.00 | 87 | 1031.8 |
| 20260830193042 | 47 | 274 | 2.0 | 7.0 | 0.00 | 0.00 | 0.00 | 87 | 1031.8 |